This demonstration page uses our WeatherBlox Daily Observations layout. Learn more.

41.86663, -103.66717

Hourly Observations for June 22, 2019

Temp ( °F °C ) Dew Point ( °F °C ) Humidity (%) Winds ( mph kmh ) Pressure ( in mb ) Visibility ( mi km ) Precip ( " mm )
12:53 am 00:53 Cloudy 54 12.2 50 10 87 87 SE 12 19 29.9 1013 10 16.0934 0 0
1:53 am 01:53 Cloudy with Light Rain 54 12.2 48 8.9 80 80 VRB 7 11 29.95 1014 10 16.0934 0 0.0254
2:53 am 02:53 Cloudy 54 12.2 46 7.8 75 75 SSE 9 15 29.95 1014 10 16.0934 0 0.0254
3:53 am 03:53 Cloudy with Light Rain 52 11.1 50 10 93 93 SE 10 17 29.94 1014 10 16.0934 0 0.0254
4:53 am 04:53 Cloudy with Light Rain 52 11 N/A N/A SE 10 17 29.97 1015 10 16.0934 0 0.0254
5:53 am 05:53 Cloudy with Light Rain 52 11 N/A N/A SSE 8 13 30.01 1016 10 16.0934 0.01 0.254
6:53 am 06:53 Cloudy with Light Rain 52 11 N/A N/A ESE 12 19 30.02 1017 10 16.0934 0.02 0.508
7:53 am 07:53 Cloudy with Light Rain 52 11 N/A N/A S 6 9 30.04 1017 7 11.26538 0.01 0.254
8:53 am 08:53 Mostly Cloudy 53 11.7 53 11.7 100 100 SSE 6 9 30.01 1016 10 16.0934 0.01 0.254
9:53 am 09:53 Mostly Sunny 57 13.9 50 10 78 78 Calm 29.99 1016 10 16.0934 0 0
10:53 am 10:53 Mostly Sunny 60 15.6 50 10 70 70 Calm 29.97 1015 10 16.0934 0 0
11:37 am 11:37 Mostly Cloudy 61 16.1 51 10.6 70 70 SW 5 7 29.9 1012 10 16.0934 0 0
11:53 am 11:53 Cloudy 62 16.7 52 11.1 70 70 Calm 29.95 1014 10 16.0934 0 0
12:03 pm 12:03 Mostly Cloudy 62 16.7 52 11.1 70 70 Calm 29.89 1012 10 16.0934 0 0
12:53 pm 12:53 Mostly Cloudy 66 18.9 53 11.7 63 63 NW 3 6 29.92 1013 10 16.0934 0 0
1:53 pm 13:53 Mostly Cloudy 65 18.3 52 11.1 63 63 NNW 5 7 29.91 1013 10 16.0934 0 0
2:53 pm 14:53 Mostly Sunny 70 21.1 55 12.8 59 59 NW 8 13 29.88 1012 10 16.0934 0 0
3:53 pm 15:53 Mostly Sunny 72 22.2 56 13.3 57 57 undefined N/A 29.87 1012 10 16.0934 0 0
4:53 pm 16:53 Sunny 72 22.2 56 13.3 57 57 VRB 5 7 29.86 1011 10 16.0934 0 0
5:53 pm 17:53 Mostly Sunny 69 20.6 52 11.1 55 55 NE 10 17 29.88 1012 10 16.0934 0 0
6:53 pm 18:53 Sunny 66 18.9 50 10 56 56 ENE 9 15 29.9 1013 10 16.0934 0 0
7:53 pm 19:53 Mostly Cloudy 64 17.8 51 10.6 63 63 NE 7 11 29.92 1013 10 16.0934 0 0
8:53 pm 20:53 Mostly Cloudy 59 15 50 10 72 72 SSW 9 15 29.94 1014 10 16.0934 0 0
9:53 pm 21:53 Clear 56 13.3 51 10.6 84 84 NNW 5 7 29.95 1014 10 16.0934 0 0
10:53 pm 22:53 Clear 56 13.3 51 10.6 84 84 NW 7 11 29.94 1014 10 16.0934 0 0
11:53 pm 23:53 Clear 54 12.2 51 10.6 90 90 NW 3 6 29.95 1014 10 16.0934 0 0

Powered by AerisWeather